This is the latest recevied weather packets stored in our database for station/object N2OCK. If no packets are shown the sender has not sent any weather packets the latest 10 day(s).
| Time | Temp. | Humidity | Pressure | Rain* | Wind** | Luminosity | Snow |
|---|---|---|---|---|---|---|---|
| 1777977876 | 12.22° C | 95% | 1011.3 hPa | 0 mm | - | 49 W/m² | - |
| 1777977572 | 11.67° C | 96% | 1011.6 hPa | 0 mm | - | 39 W/m² | - |
| 1777977265 | 11.67° C | 96% | 1011.4 hPa | 0 mm | - | 33 W/m² | - |
| 1777976961 | 11.67° C | 97% | 1011.3 hPa | 0 mm | - | 34 W/m² | - |
| 1777976658 | 11.67° C | 97% | 1011.1 hPa | 0 mm | - | 31 W/m² | - |
| 1777976355 | 11.11° C | 97% | 1010.9 hPa | 0 mm | - | 30 W/m² | - |
| 1777976054 | 11.11° C | 97% | 1011.1 hPa | 0 mm | - | 22 W/m² | - |
| 1777975751 | 11.11° C | 97% | 1010.9 hPa | 0 mm | - | 14 W/m² | - |
| 1777975448 | 11.11° C | 97% | 1010.8 hPa | 0 mm | - | 9 W/m² | - |
| 1777975143 | 11.11° C | 97% | 1010.7 hPa | 0 mm | - | 7 W/m² | - |
| 1777974841 | 11.11° C | 97% | 1010.7 hPa | 0 mm | - | 5 W/m² | - |
| 1777974537 | 11.11° C | 96% | 1010.8 hPa | 0 mm | - | 3 W/m² | - |
| 1777974234 | 11.11° C | 96% | 1010.7 hPa | 0 mm | - | 2 W/m² | - |
| 1777973929 | 11.11° C | 96% | 1010.5 hPa | 0 mm | - | 1 W/m² | - |
| 1777973627 | 11.11° C | 96% | 1010.9 hPa | 0 mm | - | 0 W/m² | - |
| 1777973324 | 11.11° C | 96% | 1010.8 hPa | 0 mm | - | 0 W/m² | - |
| 1777973022 | 11.67° C | 96% | 1010.7 hPa | 0 mm | - | 0 W/m² | - |
| 1777972719 | 11.67° C | 96% | 1010.8 hPa | 0 mm | - | 0 W/m² | - |
| 1777972417 | 11.11° C | 96% | 1010.7 hPa | 0 mm | - | 0 W/m² | - |
| 1777972115 | 11.67° C | 95% | 1010.7 hPa | 0 mm | - | 0 W/m² | - |
| 1777971813 | 11.67° C | 95% | 1010.7 hPa | 0 mm | - | 0 W/m² | - |
| 1777971510 | 11.67° C | 95% | 1010.9 hPa | 0 mm | - | 0 W/m² | - |
| 1777971208 | 11.67° C | 95% | 1010.8 hPa | 0 mm | - | 0 W/m² | - |
| 1777970905 | 11.67° C | 95% | 1010.7 hPa | 0 mm | - | 0 W/m² | - |
| 1777970603 | 11.67° C | 95% | 1010.8 hPa | 0 mm | - | 0 W/m² | - |
* Rain latest hour (hover to see other rain measurements)
** Current wind speed in m/s (hover to see current wind gust speed)